Weather History for Dickinson, ND

Change the Weather History Date:

Thursday, February 21, 2013

  Actual Average Record
Temperature  
Mean Temperature 20 °F 22 °F  
Max Temperature 25 °F 32 °F 65 °F (1995)
Min Temperature 14 °F 11 °F -28 °F (1939)
Degree Days  
Heating Degree Days 45 43  
Month to date heating degree days 850 953  
Since 1 July heating degree days 5730 6000  
Cooling Degree Days 0 0  
Month to date cooling degree days 0 0  
Year to date cooling degree days 0 0  
Moisture  
Dew Point 16 °F    
Average Humidity 85    
Maximum Humidity 92    
Minimum Humidity 77    
Precipitation  
Precipitation T in 0.02 in 0.30 in (1975)
Month to date precipitation T 0.22  
Year to date precipitation 0.08 0.52  
Sea Level Pressure  
Sea Level Pressure 30.03 in    
Wind  
Wind Speed 11 mph (SSE)    
Max Wind Speed 18 mph    
Max Gust Speed 22 mph    
Visibility 6 miles    
Events Snow    
T = Trace of Precipitation, MM = Missing Value Source: NWS Daily Summary

Daily Weather History Graph

Daily Weather History Graph

Search for Another Location

Airport:

Trip Planner

Search our weather history database for the weather conditions in past years. The results will help you decide how hot, cold, wet, or windy it might be!

Date:

Astronomy

Feb. 21, 2013 Rise Set
Actual Time 6:44 AM MST 5:25 PM MST
Civil Twilight 6:13 AM MST 5:56 PM MST
Nautical Twilight 5:38 AM MST 6:31 PM MST
Astronomical Twilight 5:03 AM MST 7:06 PM MST
Moon 1:32 PM MST (2/21) 4:00 AM MST (2/21)
Length of Visible Light 11h 42m
Length of Day
10h 40m
Waxing Gibbous, 84% of the Moon is Illuminated
Feb 21
Waxing Gibbous
Feb 25
Full
Mar 4
Last Quarter
Mar 11
New
Mar 19
First Quarter

Hourly Weather History & Observations

Time (MST) Temp. Windchill Dew Point Humidity Pressure Visibility Wind Dir Wind Speed Gust Speed Precip Events Conditions
12:56 AM 15.1 °F -0.6 °F 9.0 °F 77% 30.09 in 10.0 mi SSE 16.1 mph - 0.00 in   Overcast
1:56 AM 15.1 °F -1.1 °F 10.0 °F 80% 30.10 in 10.0 mi SE 17.3 mph - N/A   Overcast
2:35 AM 15.8 °F 1.4 °F 10.4 °F 79% 29.96 in 10.0 mi SE 13.8 mph - N/A   Overcast
2:56 AM 15.1 °F 1.1 °F 10.9 °F 84% 30.09 in 10.0 mi SE 12.7 mph - N/A   Overcast
3:56 AM 15.1 °F 1.1 °F 10.9 °F 84% 30.09 in 10.0 mi SE 12.7 mph - N/A   Overcast
4:06 AM 15.8 °F 2.1 °F 10.4 °F 79% 29.96 in 10.0 mi SE 12.7 mph - N/A   Overcast
4:56 AM 16.0 °F 2.3 °F 12.0 °F 84% 30.10 in 10.0 mi SE 12.7 mph - N/A   Overcast
5:56 AM 16.0 °F 2.3 °F 12.0 °F 84% 30.11 in 10.0 mi SE 12.7 mph - N/A   Overcast
6:08 AM 15.8 °F 2.1 °F 12.2 °F 86% 29.97 in 10.0 mi SE 12.7 mph - N/A   Overcast
6:22 AM 15.8 °F 2.7 °F 12.2 °F 86% 29.98 in 10.0 mi SE 11.5 mph - N/A   Overcast
6:29 AM 15.8 °F 3.4 °F 12.2 °F 86% 29.98 in 10.0 mi SE 10.4 mph - N/A   Overcast
6:56 AM 16.0 °F 2.9 °F 12.9 °F 88% 30.12 in 10.0 mi SSE 11.5 mph - N/A   Overcast
7:56 AM 17.1 °F 3.6 °F 12.9 °F 84% 30.14 in 10.0 mi SSE 12.7 mph - N/A   Overcast
9:14 AM 19.4 °F 8.6 °F 14.0 °F 80% 30.00 in 3.0 mi South 9.2 mph - 0.00 in Snow Light Snow
9:35 AM 19.4 °F 7.2 °F 14.0 °F 80% 30.00 in 10.0 mi South 11.5 mph - 0.00 in   Overcast
9:56 AM 19.9 °F 7.9 °F 14.0 °F 78% 30.13 in 10.0 mi South 11.5 mph - 0.00 in   Overcast
10:16 AM 21.2 °F 8.9 °F 15.8 °F 80% 30.00 in 10.0 mi SSE 12.7 mph - N/A   Overcast
10:48 AM 21.2 °F 8.9 °F 15.8 °F 80% 30.00 in 10.0 mi South 12.7 mph - N/A   Overcast
10:56 AM 21.9 °F 9.8 °F 15.1 °F 75% 30.12 in 10.0 mi SSE 12.7 mph - N/A   Overcast
11:36 AM 24.8 °F 14.6 °F 15.8 °F 69% 30.00 in 10.0 mi SSE 10.4 mph - N/A   Overcast
11:56 AM 24.1 °F 13.7 °F 17.1 °F 75% 30.11 in 3.0 mi SSE 10.4 mph - 0.00 in Snow Light Snow
12:15 PM 24.8 °F 14.0 °F 17.6 °F 74% 29.99 in 1.8 mi SSE 11.5 mph - 0.00 in Snow Light Snow
12:56 PM 25.0 °F 14.2 °F 19.0 °F 78% 30.10 in 1.2 mi SSE 11.5 mph - 0.00 in Snow Light Snow
1:56 PM 24.1 °F 14.4 °F 19.0 °F 81% 30.09 in 1.0 mi SSE 9.2 mph - 0.00 in Snow Light Snow
2:06 PM 24.8 °F 14.6 °F 19.4 °F 80% 29.97 in 1.5 mi SSE 10.4 mph - 0.00 in Snow Light Snow
2:17 PM 24.8 °F 14.6 °F 19.4 °F 80% 29.97 in 1.8 mi SSE 10.4 mph - 0.00 in Snow Light Snow
2:24 PM 24.8 °F 16.1 °F 19.4 °F 80% 29.97 in 2.0 mi SE 8.1 mph - 0.00 in Snow Light Snow
2:35 PM 24.8 °F 16.1 °F 19.4 °F 80% 29.96 in 1.5 mi SSE 8.1 mph - 0.00 in Snow Light Snow
2:52 PM 24.8 °F 15.3 °F 19.4 °F 80% 29.96 in 1.5 mi SE 9.2 mph - 0.00 in Snow Light Snow
2:56 PM 25.0 °F 15.5 °F 19.9 °F 81% 30.08 in 1.8 mi SE 9.2 mph - 0.00 in Snow Light Snow
3:22 PM 24.8 °F 16.1 °F 19.4 °F 80% 29.96 in 2.5 mi SE 8.1 mph - 0.00 in Snow Light Snow
3:31 PM 24.8 °F 17.9 °F 19.4 °F 80% 29.96 in 3.0 mi SE 5.8 mph - 0.00 in Snow Light Snow
3:38 PM 24.8 °F 16.9 °F 19.4 °F 80% 29.96 in 2.5 mi SE 6.9 mph - 0.00 in Snow Light Snow
3:45 PM 24.8 °F 15.3 °F 19.4 °F 80% 29.96 in 2.5 mi SE 9.2 mph - 0.00 in Snow Light Snow
3:56 PM 25.0 °F 14.8 °F 19.0 °F 78% 30.08 in 3.0 mi SE 10.4 mph - 0.00 in Snow Light Snow
4:03 PM 24.8 °F 15.3 °F 19.4 °F 80% 29.96 in 2.5 mi SSE 9.2 mph - 0.00 in Snow Light Snow
4:20 PM 24.8 °F 14.0 °F 19.4 °F 80% 29.96 in 3.0 mi SSE 11.5 mph - 0.00 in Snow Light Snow
4:49 PM 24.8 °F 14.6 °F 19.4 °F 80% 29.96 in 8.0 mi SE 10.4 mph - 0.00 in Snow Light Snow
4:56 PM 24.1 °F 14.4 °F 19.0 °F 81% 30.08 in 9.0 mi SE 9.2 mph - 0.00 in   Overcast
5:39 PM 23.0 °F 13.1 °F 19.4 °F 86% 29.96 in 2.0 mi SE 9.2 mph - 0.00 in Snow Light Snow
5:45 PM 23.0 °F 15.8 °F 19.4 °F 86% 29.96 in 3.0 mi SE 5.8 mph - 0.00 in Snow Light Snow
5:56 PM 21.9 °F 11.7 °F 19.0 °F 89% 30.08 in 4.0 mi SE 9.2 mph - 0.00 in Snow Light Snow
6:25 PM 21.2 °F 12.6 °F 19.4 °F 93% 29.96 in 2.5 mi SE 6.9 mph - 0.00 in Snow Light Snow
6:56 PM 21.0 °F 9.9 °F 18.0 °F 88% 30.09 in 2.5 mi SE 10.4 mph - 0.00 in Snow Light Snow
7:31 PM 19.4 °F 7.9 °F 17.6 °F 93% 29.96 in 4.0 mi SE 10.4 mph - 0.00 in Snow Light Snow
7:56 PM 19.0 °F 6.8 °F 16.0 °F 88% 30.09 in 6.0 mi SSE 11.5 mph - 0.00 in Snow Light Snow
8:56 PM 17.1 °F 5.0 °F 14.0 °F 88% 30.09 in 10.0 mi SSE 10.4 mph - 0.00 in   Clear
9:56 PM 18.0 °F 6.9 °F 15.1 °F 88% 30.08 in 10.0 mi SSE 9.2 mph - N/A   Mostly Cloudy
10:03 PM 17.6 °F 7.3 °F 15.8 °F 93% 29.95 in 10.0 mi SSE 8.1 mph - N/A   Overcast
10:56 PM 19.0 °F 8.2 °F 16.0 °F 88% 30.06 in 10.0 mi South 9.2 mph - N/A   Overcast
11:56 PM 18.0 °F 6.9 °F 15.1 °F 88% 30.05 in 8.0 mi South 9.2 mph - N/A   Overcast